Wind_Speed
8 8 8 7 7 6 6 5 4 4 4 5 6 7 7 7 7 6 7 8 8 7 7 6 5 5 4 4 4 3 3 3 3 3 4 4 4 4 5 5 5 4 5 5 4 4 4 3 3
8 8 8 8 7 6 6 5 4 4 4 5 6 6 7 7 7 6 7 7 8 7 7 7 6 5 4 4 4 3 3 3 3 3 3 4 4 4 4 4 4 4 5 5 5 5 5 4 3
8 8 8 8 7 6 6 5 5 4 4 5 6 7 7 7 7 7 7 8 8 7 7 7 7 6 5 4 3 3 3 3 3 3 3 3 4 4 4 4 4 4 5 5 5 5 5 5 4
8 8 8 8 7 7 7 6 5 5 4 5 6 7 8 8 8 8 8 8 8 7 7 7 7 6 5 4 3 2 2 2 2 3 3 3 4 4 4 4 4 4 5 5 5 5 5 5 5
8 8 8 8 7 7 7 6 6 5 5 5 6 7 8 8 8 8 9 8 8 8 7 7 7 6 5 5 4 3 2 2 2 3 3 3 3 3 3 4 4 4 4 5 5 5 5 5 5
8 8 8 8 8 8 6 7 7 7 7 6 6 7 7 9 9 8 9 8 8 8 8 8 7 5 5 5 4 3 2 3 3 3 3 3 3 3 3 4 4 4 5 5 5 6 6 6 6
8 8 8 8 8 7 7 7 7 7 7 7 6 7 8 9 9 9 9 9 9 9 9 8 7 6 5 4 3 3 2 3 2 2 3 3 3 3 4 4 4 5 5 5 6 6 6 6 6
8 8 8 8 8 7 7 7 7 7 7 7 7 7 9 10 10 10 10 9 10 10 9 8 7 6 6 5 3 3 3 2 2 1 2 2 3 4 4 4 5 5 5 6 6 7 7 7 7
8 8 7 8 8 7 6 6 7 8 8 8 8 8 9 10 10 9 9 10 10 9 8 7 6 6 5 5 4 3 2 2 1 1 2 2 3 4 4 5 6 6 6 7 7 7 7 7 7
8 8 7 7 7 7 7 7 7 8 9 8 9 9 10 10 10 10 10 10 9 9 8 7 6 6 5 4 3 3 2 1 0 1 1 3 4 4 5 6 6 6 7 7 7 8 8 8 8
7 7 7 7 7 7 7 6 7 8 9 9 9 10 10 10 10 10 10 10 9 9 8 7 7 7 6 5 4 3 2 1 1 1 2 3 4 5 5 6 6 7 7 8 8 8 8 8 8
7 7 7 7 7 8 7 7 8 8 9 9 9 10 10 10 10 9 9 9 9 8 8 8 7 7 6 5 4 3 2 1 1 1 2 3 4 5 5 6 6 7 8 9 9 9 9 9 8
8 7 8 8 8 9 8 8 9 8 9 10 9 9 10 10 10 10 10 10 10 9 8 8 7 6 6 5 4 3 2 1 1 2 3 3 4 5 5 6 7 8 8 9 10 10 9 9 9
7 7 8 9 8 9 9 9 9 9 9 9 10 10 10 11 10 10 11 11 10 9 8 7 8 7 6 5 4 3 2 2 2 2 3 4 5 5 6 7 8 8 9 9 10 10 9 9 9
7 8 8 9 8 8 9 9 9 9 10 10 10 10 10 11 11 11 11 10 10 9 8 8 7 7 6 5 4 3 2 1 2 2 3 4 5 6 7 7 8 9 9 9 10 10 9 9 9
7 8 8 9 8 8 8 9 10 10 11 11 10 10 10 10 11 10 10 9 9 8 8 8 7 7 6 5 4 3 2 2 2 3 4 5 5 6 7 7 8 9 9 10 10 10 9 9 9
7 7 8 9 9 8 8 8 9 11 11 11 10 10 10 10 10 10 10 9 9 8 7 7 7 7 6 5 4 3 2 2 2 3 4 5 5 6 7 8 8 9 10 10 10 10 10 9 9
6 6 8 8 9 9 9 8 9 10 10 10 10 10 10 11 11 10 9 9 9 8 8 7 7 7 6 5 4 3 3 2 2 3 4 5 5 6 7 8 8 9 10 10 10 10 10 9 9
6 6 7 8 9 9 8 9 9 10 10 10 10 9 10 11 11 10 9 9 8 8 8 8 8 7 6 5 4 3 3 3 3 3 4 5 5 6 6 7 8 9 9 9 9 9 10 9 9
7 7 7 8 9 9 9 9 9 9 10 10 10 10 10 10 10 10 9 9 8 8 8 8 7 7 6 5 4 3 2 2 2 3 4 5 5 5 6 7 8 9 9 9 10 10 10 10 9
7 7 7 7 9 9 9 9 10 10 10 10 10 10 10 10 11 10 9 9 9 9 9 8 8 7 7 5 4 3 2 2 2 3 4 4 4 5 5 6 8 8 9 9 10 10 10 10 9
7 7 7 8 9 9 9 9 10 10 11 10 9 10 10 10 10 10 10 10 9 9 9 8 8 7 6 5 4 4 3 2 2 3 3 4 4 4 5 6 7 8 9 9 10 10 10 10 9
7 7 8 8 9 9 8 9 9 10 10 9 9 10 10 10 10 10 10 10 10 9 9 9 8 7 6 6 5 4 3 3 3 3 3 3 4 4 5 6 7 8 9 9 9 9 10 10 9
7 7 7 8 9 9 9 9 9 9 9 9 10 10 10 10 10 11 10 10 10 9 9 9 8 8 7 6 5 4 4 3 3 3 3 3 4 4 5 6 7 8 8 9 9 9 9 10 10
8 7 8 8 8 9 9 10 10 9 10 9 10 10 10 11 11 11 11 11 10 9 9 9 8 8 7 6 5 5 4 4 4 3 3 4 4 5 6 6 7 7 8 8 9 9 9 10 10
9 8 8 8 8 8 9 9 9 9 9 10 10 11 11 11 12 12 11 11 11 10 10 10 9 8 7 6 5 5 5 4 3 3 3 4 4 5 5 6 6 7 7 8 9 9 10 10 10
9 9 8 8 8 8 9 8 9 9 9 9 9 10 10 11 11 12 12 11 11 11 10 10 10 9 8 7 6 5 5 4 4 4 4 4 4 5 5 6 6 7 7 7 8 9 10 10 11
9 9 9 8 8 8 8 8 9 8 9 9 9 10 11 11 11 12 12 12 12 12 11 10 10 10 9 8 7 6 6 5 5 5 4 4 5 5 6 6 6 6 7 8 8 9 10 11 11
9 10 9 9 8 8 8 8 9 8 9 9 10 11 11 11 12 12 12 12 12 12 11 11 10 10 9 8 8 7 7 6 6 5 5 5 5 6 6 6 6 7 8 8 9 9 10 11 12
9 10 10 9 8 8 8 8 8 8 9 9 10 11 12 12 12 12 12 12 12 12 12 12 11 11 10 9 8 8 7 7 7 6 6 6 6 6 6 7 7 7 8 9 9 10 11 11 12
Wind_Direction
254 250 251 251 247 242 236 231 236 229 218 207 201 192 184 185 181 179 177 172 166 164 167 163 149 150 141 135 131 120 103 87 73 63 53 47 41 37 36 34 26 25 23 19 12 7 4 355 345
251 248 247 247 244 239 236 235 225 225 223 204 192 191 184 180 184 181 178 174 167 166 169 169 161 156 151 145 136 127 107 85 67 61 52 43 33 29 28 28 20 21 21 15 8 3 360 351 337
248 245 240 242 240 235 232 229 221 215 212 201 199 190 185 177 175 174 178 172 167 166 170 170 170 166 163 156 141 125 109 85 67 58 49 39 29 27 26 20 12 11 11 7 2 357 352 347 334
243 242 236 234 231 228 226 226 217 215 213 199 190 184 175 173 174 173 175 171 171 169 169 168 170 170 168 164 157 138 114 86 66 57 51 38 30 27 14 5 2 357 354 353 348 347 345 335 326
240 236 234 233 229 226 224 226 216 207 206 194 182 174 175 175 176 171 165 168 168 166 165 166 167 165 169 164 163 154 135 93 82 61 52 42 34 22 5 353 346 342 342 341 336 333 332 327 320
237 234 231 229 227 228 222 220 212 200 193 186 179 176 178 176 172 170 165 165 168 166 165 167 169 168 171 171 172 158 130 102 82 55 41 38 36 17 358 350 345 339 332 330 329 328 324 320 315
238 233 226 225 223 220 218 213 204 189 183 183 179 176 175 176 173 172 170 172 171 167 165 168 169 165 165 166 165 159 141 112 84 59 42 35 29 17 1 352 348 341 334 332 331 326 322 318 314
234 230 224 220 215 208 208 206 197 189 183 182 181 176 178 173 169 168 172 173 173 167 162 159 162 169 170 168 157 145 149 132 99 62 40 26 15 5 355 349 343 338 335 331 329 325 321 321 316
229 220 213 213 214 207 202 204 197 190 188 181 178 176 176 177 176 174 175 176 174 171 163 160 166 167 169 169 174 164 158 138 105 46 15 4 359 354 349 345 341 337 333 328 324 322 321 319 316
218 209 206 208 206 203 195 196 191 185 183 179 174 171 171 175 175 177 177 177 175 174 172 171 172 170 168 173 181 188 186 184 230 356 358 346 346 345 343 339 338 336 331 328 326 324 322 318 314
206 197 195 198 200 197 188 184 180 173 178 175 170 169 170 176 177 182 181 179 176 176 177 174 177 177 185 189 187 197 209 227 267 314 326 333 335 335 334 332 331 330 330 330 329 327 324 320 315
191 192 194 193 197 196 189 179 174 171 176 181 179 176 172 174 179 184 183 183 185 180 180 181 180 180 184 191 199 208 212 237 270 299 316 327 329 330 334 333 329 329 330 332 332 328 323 319 315
188 192 193 191 189 186 186 184 178 178 173 177 175 174 175 173 179 183 184 183 183 181 177 181 186 188 188 199 209 207 209 238 271 304 315 324 328 328 332 331 329 330 332 332 329 327 323 320 318
184 184 184 182 182 182 183 175 174 175 177 175 175 175 176 178 180 183 185 185 184 182 182 185 194 193 194 202 204 190 202 238 272 303 319 325 327 329 333 332 332 333 332 331 331 329 326 324 322
184 183 181 182 184 185 182 180 178 174 172 173 172 174 177 178 179 180 179 182 184 185 190 192 194 194 196 193 188 184 198 242 288 309 322 326 327 329 332 332 333 333 333 333 332 330 327 323 321
181 186 184 178 177 182 182 179 175 174 172 175 175 178 180 179 177 178 178 180 184 189 190 186 188 193 194 189 187 195 211 249 299 316 325 329 328 327 330 332 334 335 337 337 335 332 328 324 320
184 183 184 179 179 178 181 179 176 175 176 178 182 183 184 179 179 182 184 185 185 186 184 182 185 188 190 187 190 203 223 246 293 317 324 330 332 332 334 335 337 338 338 339 338 335 332 330 325
184 184 185 183 183 183 182 186 185 180 181 184 186 187 187 184 184 184 185 187 186 188 187 184 185 187 187 194 200 215 229 250 288 315 328 337 340 340 341 342 341 340 340 341 341 337 336 335 333
182 188 191 191 191 189 187 186 187 186 191 190 191 191 184 189 187 186 187 190 187 192 193 193 187 191 197 204 213 222 232 251 280 309 325 335 340 342 343 345 346 346 346 347 347 346 344 341 338
184 188 195 197 198 198 195 192 194 196 196 194 195 195 193 194 192 188 191 193 192 196 197 193 195 199 205 209 220 222 228 260 288 312 327 334 339 342 343 344 347 349 352 352 351 351 348 344 342
183 188 199 204 203 203 202 201 200 202 204 202 200 199 199 201 202 201 199 198 198 201 200 197 199 200 201 207 219 217 228 260 288 311 327 338 343 346 344 346 349 351 352 351 352 353 353 351 350
192 194 197 199 205 206 207 206 204 207 210 210 206 206 207 205 205 205 200 201 202 203 202 202 202 200 201 210 216 223 233 262 289 308 327 337 343 348 349 350 350 351 351 352 354 357 358 357 356
201 200 199 201 206 208 211 213 209 212 216 216 213 212 214 212 209 206 202 204 203 203 204 205 204 202 207 216 222 224 238 259 284 305 324 332 336 343 348 350 351 352 355 356 358 0 0 358 356
205 204 203 204 208 212 216 221 214 215 220 222 220 218 216 215 211 209 208 206 205 204 206 205 206 207 212 216 218 228 237 249 270 292 313 324 329 337 343 347 350 353 356 358 359 359 359 358 356
209 210 213 214 218 223 226 229 221 219 223 224 224 220 217 214 213 210 210 206 207 207 208 208 210 210 211 216 224 234 238 249 265 277 294 308 322 332 338 345 350 353 354 357 359 358 357 357 356
218 217 222 226 229 229 231 233 225 225 225 224 222 221 216 212 211 211 211 211 213 212 212 211 212 213 214 220 230 240 246 245 256 271 290 302 312 324 334 342 348 351 352 354 357 357 356 355 354
221 222 229 231 230 234 235 231 225 227 228 223 219 218 215 212 211 213 215 215 217 216 216 215 216 217 218 225 238 249 247 253 261 269 284 296 307 317 327 332 338 342 344 346 348 350 353 354 354
227 227 234 231 227 231 233 228 225 228 228 223 221 220 217 214 214 215 215 215 216 217 217 219 220 220 224 231 242 249 253 257 261 268 279 293 303 308 315 321 326 333 336 338 340 343 347 349 348
231 232 234 228 227 230 231 230 227 229 231 227 224 221 221 220 220 218 216 215 217 219 220 220 219 221 227 233 239 246 252 257 261 267 275 286 295 299 306 314 318 323 327 329 333 338 341 343 344
236 236 236 228 227 235 236 231 229 228 231 229 226 226 226 227 225 222 221 222 222 224 222 221 221 222 226 232 241 247 249 254 260 267 274 282 288 292 298 306 312 316 321 324 328 331 334 337 338
Height
5859 5859 5860 5862 5863 5864 5864 5865 5866 5866 5867 5868 5869 5870 5871 5873 5875 5879 5877 5877 5879 5880 5881 5882 5883 5884 5885 5885 5886 5887 5887 5887 5887 5888 5888 5888 5889 5889 5889 5889 5889 5889 5889 5889 5889 5889 5889 5889 5888
5857 5858 5860 5861 5862 5863 5864 5864 5865 5866 5866 5867 5868 5869 5871 5872 5873 5875 5876 5877 5878 5880 5881 5882 5883 5884 5885 5886 5887 5887 5887 5888 5888 5888 5888 5889 5889 5889 5889 5889 5889 5889 5889 5889 5889 5889 5889 5888 5888
5856 5857 5859 5860 5860 5862 5863 5863 5864 5865 5866 5867 5868 5869 5870 5872 5873 5874 5876 5877 5878 5880 5881 5882 5883 5884 5885 5886 5887 5887 5888 5888 5888 5888 5889 5889 5889 5889 5889 5889 5890 5890 5889 5889 5889 5889 5888 5888 5888
5855 5856 5858 5859 5859 5861 5861 5862 5863 5864 5865 5866 5867 5869 5870 5871 5873 5874 5875 5876 5878 5880 5880 5882 5883 5884 5885 5886 5887 5887 5888 5888 5889 5889 5889 5889 5890 5889 5890 5889 5890 5890 5889 5889 5889 5889 5888 5888 5887
5853 5855 5857 5857 5858 5859 5860 5861 5863 5863 5865 5866 5867 5868 5870 5871 5873 5874 5875 5876 5878 5879 5881 5882 5883 5884 5885 5886 5887 5888 5888 5889 5889 5889 5889 5889 5890 5889 5889 5889 5889 5889 5889 5889 5888 5888 5888 5887 5887
5852 5853 5855 5856 5857 5858 5859 5860 5862 5863 5864 5865 5867 5868 5869 5871 5873 5874 5875 5877 5878 5880 5881 5882 5883 5884 5885 5886 5887 5888 5889 5889 5889 5889 5890 5890 5890 5890 5890 5889 5889 5889 5889 5888 5888 5887 5887 5886 5886
5851 5852 5853 5854 5856 5858 5859 5860 5861 5862 5863 5865 5866 5867 5869 5871 5872 5874 5875 5877 5878 5879 5881 5882 5883 5885 5886 5887 5888 5888 5889 5889 5890 5890 5890 5890 5890 5890 5890 5889 5889 5888 5888 5888 5887 5887 5886 5885 5885
5849 5851 5852 5853 5855 5857 5859 5859 5860 5862 5863 5865 5866 5868 5869 5871 5872 5874 5875 5877 5878 5880 5881 5883 5884 5885 5886 5887 5888 5889 5889 5890 5890 5890 5890 5890 5890 5890 5890 5889 5889 5888 5888 5887 5886 5886 5885 5884 5883
5848 5851 5851 5853 5855 5856 5858 5859 5860 5861 5863 5865 5866 5868 5869 5871 5872 5874 5876 5877 5879 5880 5881 5883 5884 5885 5886 5887 5888 5889 5890 5890 5890 5890 5890 5890 5890 5890 5889 5889 5888 5888 5887 5886 5885 5884 5884 5883 5882
5847 5849 5850 5852 5854 5855 5857 5858 5859 5861 5862 5864 5866 5867 5869 5871 5873 5874 5876 5877 5879 5880 5882 5883 5884 5885 5886 5887 5888 5889 5890 5890 5890 5890 5890 5890 5890 5890 5889 5888 5888 5887 5886 5885 5884 5883 5882 5881 5880
5846 5848 5850 5851 5853 5854 5856 5858 5859 5861 5862 5864 5866 5867 5869 5871 5873 5874 5876 5877 5879 5880 5882 5883 5884 5885 5887 5887 5888 5889 5890 5890 5890 5890 5890 5890 5890 5889 5889 5888 5887 5886 5885 5884 5883 5882 5881 5880 5879
5845 5847 5849 5851 5852 5854 5856 5858 5859 5860 5863 5864 5865 5867 5869 5871 5872 5874 5876 5877 5879 5880 5882 5883 5884 5885 5886 5887 5888 5889 5889 5890 5890 5890 5890 5889 5889 5889 5888 5887 5886 5885 5884 5883 5882 5880 5879 5878 5877
5845 5847 5849 5850 5852 5853 5856 5858 5859 5860 5862 5864 5865 5867 5869 5870 5872 5874 5875 5877 5878 5880 5882 5883 5884 5885 5886 5887 5888 5888 5889 5890 5890 5890 5890 5889 5889 5888 5887 5887 5886 5884 5883 5882 5880 5879 5878 5877 5875
5845 5847 5848 5850 5852 5853 5855 5858 5859 5861 5862 5864 5865 5867 5869 5870 5872 5873 5875 5877 5878 5880 5881 5882 5884 5885 5886 5887 5888 5888 5889 5889 5889 5889 5889 5889 5888 5887 5887 5886 5885 5883 5882 5880 5879 5878 5876 5875 5874
5845 5847 5849 5850 5852 5853 5856 5858 5859 5860 5862 5864 5866 5867 5869 5870 5872 5873 5875 5877 5878 5880 5881 5882 5884 5885 5886 5887 5887 5888 5888 5889 5889 5889 5888 5888 5887 5887 5886 5885 5884 5882 5881 5879 5878 5876 5875 5874 5872
5846 5848 5849 5851 5852 5854 5857 5858 5859 5861 5862 5864 5865 5867 5869 5870 5872 5873 5875 5876 5878 5879 5881 5882 5883 5884 5885 5886 5887 5887 5888 5888 5888 5888 5888 5887 5887 5886 5885 5884 5883 5881 5880 5878 5876 5875 5873 5872 5871
5846 5848 5849 5851 5852 5854 5856 5858 5859 5861 5862 5863 5865 5867 5869 5870 5872 5873 5875 5876 5878 5879 5880 5881 5883 5884 5885 5886 5887 5887 5888 5888 5888 5888 5887 5887 5886 5885 5884 5883 5881 5880 5879 5877 5875 5873 5872 5870 5869
5847 5848 5850 5851 5853 5854 5856 5858 5859 5861 5862 5864 5865 5867 5868 5870 5871 5873 5875 5876 5877 5878 5880 5881 5882 5883 5885 5886 5886 5887 5887 5887 5887 5887 5887 5886 5885 5884 5883 5882 5881 5879 5877 5876 5874 5872 5871 5869 5867
5847 5848 5850 5851 5853 5854 5856 5857 5859 5861 5862 5863 5865 5866 5868 5869 5871 5872 5874 5875 5877 5878 5879 5881 5882 5883 5884 5885 5886 5886 5887 5887 5887 5887 5886 5885 5885 5883 5882 5881 5880 5878 5876 5875 5873 5871 5869 5868 5866
5847 5849 5850 5852 5853 5854 5856 5857 5859 5860 5861 5863 5865 5866 5867 5869 5870 5872 5873 5875 5876 5878 5879 5880 5881 5882 5883 5884 5885 5886 5886 5886 5886 5886 5885 5885 5884 5883 5882 5881 5879 5877 5876 5874 5872 5870 5868 5867 5865
5847 5849 5850 5852 5853 5854 5856 5857 5858 5860 5861 5863 5864 5865 5867 5868 5870 5871 5873 5874 5875 5877 5878 5880 5880 5882 5883 5884 5884 5885 5885 5886 5886 5885 5885 5884 5883 5882 5881 5880 5879 5877 5875 5873 5871 5870 5868 5866 5864
5847 5848 5849 5851 5853 5854 5856 5857 5858 5859 5860 5862 5863 5865 5866 5867 5869 5870 5872 5873 5874 5876 5877 5879 5880 5881 5882 5883 5883 5884 5885 5885 5885 5885 5884 5883 5883 5882 5881 5879 5878 5876 5875 5873 5871 5869 5867 5865 5864
5847 5847 5849 5850 5852 5853 5855 5856 5858 5858 5860 5861 5863 5864 5865 5866 5868 5869 5870 5872 5874 5875 5876 5878 5879 5880 5881 5882 5883 5883 5884 5884 5884 5884 5883 5883 5882 5881 5880 5879 5877 5876 5874 5872 5871 5869 5867 5865 5863
5846 5847 5848 5849 5850 5853 5854 5855 5857 5858 5859 5860 5861 5863 5864 5865 5867 5868 5870 5871 5873 5874 5875 5876 5878 5879 5880 5881 5882 5882 5883 5883 5883 5883 5883 5882 5881 5881 5879 5878 5877 5875 5874 5872 5870 5868 5866 5865 5863
5846 5847 5848 5848 5849 5852 5853 5853 5856 5857 5857 5858 5860 5861 5863 5864 5866 5867 5869 5870 5872 5873 5874 5875 5877 5878 5879 5880 5881 5881 5881 5882 5882 5882 5882 5881 5881 5880 5879 5878 5876 5875 5873 5872 5870 5868 5866 5864 5862
5844 5846 5848 5849 5849 5851 5851 5852 5855 5855 5856 5857 5858 5860 5861 5863 5864 5866 5867 5869 5870 5871 5873 5874 5875 5877 5878 5879 5879 5880 5880 5880 5881 5881 5881 5880 5880 5879 5878 5877 5876 5874 5873 5871 5870 5868 5866 5864 5862
5843 5844 5846 5847 5848 5849 5849 5851 5853 5854 5855 5856 5857 5859 5860 5861 5863 5864 5866 5867 5869 5870 5871 5873 5874 5875 5876 5877 5878 5879 5879 5879 5879 5879 5879 5879 5878 5878 5877 5876 5875 5874 5872 5871 5869 5867 5866 5863 5861
5842 5843 5844 5846 5846 5847 5849 5850 5851 5852 5853 5854 5856 5857 5858 5860 5861 5863 5864 5865 5867 5868 5870 5871 5872 5873 5875 5876 5876 5877 5877 5878 5878 5878 5878 5878 5877 5877 5876 5875 5874 5873 5872 5870 5868 5867 5865 5863 5860
5841 5842 5842 5844 5845 5846 5847 5851 5850 5851 5852 5853 5854 5855 5857 5858 5859 5861 5862 5864 5865 5867 5868 5869 5870 5872 5873 5874 5875 5875 5876 5876 5876 5876 5876 5876 5876 5875 5875 5874 5873 5872 5870 5869 5867 5866 5864 5862 5859
5838 5839 5841 5842 5843 5844 5846 5850 5848 5849 5850 5851 5853 5854 5855 5856 5857 5859 5860 5862 5863 5865 5866 5867 5868 5870 5871 5872 5873 5873 5874 5874 5874 5874 5875 5874 5874 5874 5873 5873 5872 5870 5869 5868 5866 5864 5862 5860 5858